Location: CAO
(44.5093°N, 80.3921°W)
Time: 20:50:37
(UTC-05:00)

ISS - Visible Passes

Search period start: 21 January 2026 00:00
Search period end: 31 January 2026 00:00
Orbit: 413 x 423 km, 51.6° (Epoch: 21 January)

Date Brightness Start Highest point End Pass type
(mag) Time Alt. Az. Time Alt. Az. Time Alt. Az.
21 Jan -2.3 18:54:13 10° NW 18:57:01 24° N 18:57:05 24° N visible
22 Jan -2.2 18:06:07 10° NW 18:08:52 23° N 18:11:08 13° NE visible
22 Jan -1.2 19:43:03 10° NW 19:44:04 18° NW 19:44:04 18° NW visible
23 Jan -2.7 18:55:04 10° NW 18:58:06 31° NNE 18:58:06 31° NNE visible
24 Jan -2.5 18:07:01 10° NW 18:09:54 26° N 18:12:12 14° ENE visible
24 Jan -1.6 19:43:41 10° WNW 19:45:08 24° NW 19:45:08 24° NW visible
25 Jan -3.6 18:55:37 10° NW 18:58:55 53° NNE 18:59:16 50° NE visible
26 Jan -3.1 18:07:32 10° NW 18:10:42 38° NNE 18:13:29 12° E visible
26 Jan -1.9 19:44:20 10° WNW 19:46:26 30° W 19:46:26 30° W visible
27 Jan -3.5 18:56:03 10° WNW 18:59:23 67° SW 19:00:47 31° SE visible
28 Jan -3.8 18:07:51 10° WNW 18:11:11 77° NNE 18:14:32 10° ESE visible
28 Jan -1.1 19:45:27 10° W 19:47:35 16° SW 19:48:17 15° SSW visible
29 Jan -1.6 18:56:40 10° W 18:59:30 26° SW 19:02:19 10° SSE visible
30 Jan -2.5 18:08:08 10° WNW 18:11:20 42° SW 18:14:30 10° SE visible
